Location: Moscow
(55.7500°N, 37.5830°E)
Time: 17:40:26
(UTC+03:00)

A-11 Canister half - Pass Details

Date: 02 December 2021
Orbit: 1516 x 1684 km, 47.2° (Epoch: 19 January)

Event Time Altitude Azimuth Distance (km) Brightness Sun altitude
Rises 11:05:58 0° 260° (W) 4,841 11.5 10.7°
Reaches altitude 10° 11:09:09 10° 256° (WSW) 3,876 11.1 10.8°
Maximum altitude 11:18:40 53° 184° (S) 1,981 10.5 11.2°
Drops below altitude 10° 11:28:22 10° 111° (ESE) 3,948 11.7 11.5°
Sets 11:31:38 0° 107° (ESE) 4,936 12.1 11.6°
